Weather History for Wahoo, NE

Change the Weather History Date:

Sunday, June 10, 2012

  Actual Average Record
Temperature  
Mean Temperature 76 °F -  
Max Temperature 87 °F 81 °F 96 °F (1977)
Min Temperature 65 °F 56 °F 45 °F (1988)
Cooling Degree Days 12    
Growing Degree Days 26 (Base 50)    
Moisture  
Dew Point 63 °F    
Average Humidity 63    
Maximum Humidity 91    
Minimum Humidity 47    
Precipitation  
Precipitation 0.33 in - - ()
Sea Level Pressure  
Sea Level Pressure 29.67 in    
Wind  
Wind Speed 14 mph (SSE)    
Max Wind Speed 26 mph    
Max Gust Speed 34 mph    
Visibility 10 miles    
Events Rain    
Averages and records for this station are not official NWS values.
T = Trace of Precipitation, MM = Missing Value Source: NWS Daily Summary

Daily Weather History Graph

Daily Weather History Graph

Search for Another Location

Airport:

Trip Planner

Search our weather history database for the weather conditions in past years. The results will help you decide how hot, cold, wet, or windy it might be!

Date:

Astronomy

Jun. 10, 2012 Rise Set
Actual Time 5:53 AM CDT 8:59 PM CDT
Civil Twilight 5:19 AM CDT 9:32 PM CDT
Nautical Twilight 4:36 AM CDT 10:15 PM CDT
Astronomical Twilight 3:45 AM CDT 11:06 PM CDT
Moon 12:49 AM CDT (6/10) 12:46 PM CDT (6/10)
Length of Visible Light 16h 13m
Length of Day
15h 06m
Waning Gibbous, 58% of the Moon is Illuminated
Jun 10
Waning Gibbous
Jun 11
Last Quarter
Jun 19
New
Jun 26
First Quarter
Jul 3
Full

Hourly Weather History & Observations

Time (CDT) Temp. Heat Index Dew Point Humidity Pressure Visibility Wind Dir Wind Speed Gust Speed Precip Events Conditions
12:15 AM 79.0 °F - 60.4 °F 53% 29.66 in 10.0 mi SSE 15.0 mph 21.9 mph N/A   Clear
12:35 AM 78.8 °F - 60.8 °F 54% 29.66 in 10.0 mi SSE 17.3 mph 23.0 mph N/A   Clear
12:55 AM 77.9 °F - 60.8 °F 56% 29.65 in 10.0 mi SSE 16.1 mph 19.6 mph N/A   Clear
1:15 AM 77.7 °F - 61.2 °F 57% 29.65 in 10.0 mi SSE 15.0 mph 20.7 mph N/A   Clear
1:35 AM 77.0 °F - 61.2 °F 58% 29.64 in 10.0 mi SSE 15.0 mph - N/A   Clear
1:55 AM 76.6 °F - 61.3 °F 59% 29.64 in 10.0 mi SSE 15.0 mph 19.6 mph N/A   Clear
2:15 AM 76.1 °F - 61.7 °F 61% 29.64 in 10.0 mi SSE 12.7 mph 19.6 mph N/A   Clear
2:35 AM 75.4 °F - 61.7 °F 62% 29.63 in 10.0 mi SSE 12.7 mph - N/A   Clear
2:55 AM 74.8 °F - 61.9 °F 64% 29.63 in 10.0 mi SSE 13.8 mph - N/A   Clear
3:15 AM 74.7 °F - 62.1 °F 65% 29.63 in 10.0 mi SSE 16.1 mph 19.6 mph N/A   Clear
3:35 AM 74.5 °F - 62.1 °F 65% 29.63 in 10.0 mi SSE 11.5 mph 19.6 mph N/A   Clear
3:55 AM 73.4 °F - 61.9 °F 67% 29.62 in 10.0 mi SSE 10.4 mph - N/A   Clear
4:15 AM 72.9 °F - 61.9 °F 68% 29.62 in 10.0 mi SSE 11.5 mph - N/A   Clear
4:35 AM 72.5 °F - 62.1 °F 70% 29.62 in 10.0 mi SSE 11.5 mph - N/A   Clear
4:55 AM 72.0 °F - 62.2 °F 71% 29.63 in 10.0 mi SSE 13.8 mph - N/A   Clear
5:15 AM 72.0 °F - 62.6 °F 72% 29.63 in 10.0 mi SSE 12.7 mph - N/A   Clear
5:35 AM 72.0 °F - 62.6 °F 72% 29.63 in 10.0 mi SSE 13.8 mph - N/A   Clear
5:55 AM 72.0 °F - 62.8 °F 73% 29.63 in 10.0 mi SSE 12.7 mph - N/A   Clear
6:15 AM 72.1 °F - 62.8 °F 72% 29.63 in 10.0 mi SSE 16.1 mph 21.9 mph N/A   Clear
6:35 AM 72.9 °F - 63.0 °F 71% 29.63 in 10.0 mi SSE 13.8 mph 21.9 mph N/A   Clear
6:55 AM 73.4 °F - 62.8 °F 69% 29.63 in 10.0 mi SSE 17.3 mph - N/A   Clear
7:15 AM 73.9 °F - 63.0 °F 68% 29.63 in 10.0 mi SSE 17.3 mph 23.0 mph N/A   Clear
7:35 AM 74.7 °F - 63.0 °F 67% 29.63 in 10.0 mi SSE 18.4 mph 25.3 mph N/A   Clear
7:55 AM 75.2 °F - 63.1 °F 66% 29.62 in 10.0 mi SSE 18.4 mph 24.2 mph N/A   Clear
8:15 AM 76.3 °F - 63.5 °F 64% 29.63 in 10.0 mi SSE 19.6 mph 27.6 mph N/A   Clear
8:35 AM 77.2 °F - 63.5 °F 63% 29.63 in 10.0 mi SSE 20.7 mph 26.5 mph N/A   Clear
8:55 AM 78.6 °F - 64.2 °F 61% 29.64 in 10.0 mi SSE 20.7 mph 25.3 mph N/A   Clear
9:15 AM 80.1 °F 81.7 °F 64.0 °F 58% 29.65 in 10.0 mi South 19.6 mph 29.9 mph N/A   Clear
9:35 AM 81.0 °F 82.5 °F 64.0 °F 56% 29.64 in 10.0 mi South 24.2 mph 34.5 mph N/A   Clear
9:55 AM 81.9 °F 83.4 °F 64.2 °F 55% 29.64 in 10.0 mi South 26.5 mph 31.1 mph N/A   Clear
10:15 AM 83.5 °F 84.9 °F 64.2 °F 52% 29.66 in 10.0 mi South 19.6 mph 28.8 mph N/A   Clear
10:35 AM 84.4 °F 85.6 °F 64.0 °F 50% 29.66 in 10.0 mi SSW 20.7 mph 31.1 mph N/A   Mostly Cloudy
10:55 AM 84.4 °F 85.9 °F 64.2 °F 51% 29.65 in 10.0 mi SSW 20.7 mph 31.1 mph N/A   Scattered Clouds
11:15 AM 85.3 °F 86.8 °F 64.9 °F 50% 29.65 in 10.0 mi South 18.4 mph 28.8 mph N/A   Scattered Clouds
11:35 AM 86.0 °F 87.6 °F 64.6 °F 49% 29.65 in 10.0 mi South 21.9 mph 29.9 mph N/A   Scattered Clouds
11:55 AM 86.2 °F 87.6 °F 64.2 °F 48% 29.64 in 10.0 mi South 20.7 mph 33.4 mph N/A   Mostly Cloudy
12:15 PM 86.4 °F 87.6 °F 64.2 °F 47% 29.65 in 10.0 mi South 21.9 mph 28.8 mph N/A   Overcast
12:35 PM 86.0 °F 87.3 °F 64.2 °F 48% 29.64 in 10.0 mi South 18.4 mph 25.3 mph N/A   Overcast
12:55 PM 85.6 °F 86.8 °F 63.9 °F 48% 29.65 in 10.0 mi South 15.0 mph 24.2 mph N/A   Overcast
1:15 PM 85.3 °F 86.6 °F 64.0 °F 49% 29.65 in 10.0 mi South 13.8 mph 24.2 mph N/A   Overcast
1:35 PM 85.3 °F 86.8 °F 64.6 °F 50% 29.65 in 10.0 mi South 13.8 mph 20.7 mph N/A   Overcast
1:55 PM 85.3 °F 86.6 °F 64.4 °F 49% 29.65 in 10.0 mi SSW 11.5 mph 19.6 mph N/A   Overcast
2:15 PM 86.0 °F 87.6 °F 64.6 °F 49% 29.65 in 10.0 mi SSW 16.1 mph 19.6 mph N/A   Overcast
2:35 PM 86.9 °F 88.9 °F 65.5 °F 49% 29.65 in 10.0 mi South 15.0 mph 19.6 mph N/A   Mostly Cloudy
2:55 PM 86.9 °F 88.6 °F 65.1 °F 48% 29.65 in 10.0 mi South 13.8 mph 21.9 mph N/A   Scattered Clouds
3:15 PM 87.1 °F 88.9 °F 65.1 °F 48% 29.65 in 10.0 mi SSW 12.7 mph 19.6 mph N/A   Mostly Cloudy
3:35 PM 81.0 °F 84.6 °F 70.2 °F 70% 29.66 in 5.0 mi SSW 4.6 mph 24.2 mph 0.02 in Rain Light Rain
3:55 PM 84.2 °F 89.3 °F 71.2 °F 65% 29.65 in 10.0 mi SSW 5.8 mph - 0.02 in   Scattered Clouds
4:15 PM 86.0 °F 89.7 °F 68.5 °F 56% 29.66 in 10.0 mi SW 9.2 mph - N/A   Clear
4:35 PM 80.2 °F 81.9 °F 64.0 °F 58% 29.68 in 10.0 mi NW 18.4 mph 24.2 mph N/A   Mostly Cloudy
4:55 PM 79.5 °F - 63.7 °F 58% 29.67 in 10.0 mi NW 13.8 mph 24.2 mph N/A   Mostly Cloudy
5:15 PM 80.8 °F 82.1 °F 63.3 °F 55% 29.67 in 10.0 mi NW 18.4 mph 24.2 mph N/A   Scattered Clouds
5:35 PM 80.6 °F 81.9 °F 63.0 °F 55% 29.68 in 10.0 mi NW 13.8 mph 21.9 mph N/A   Clear
5:55 PM 78.3 °F - 61.9 °F 57% 29.69 in 10.0 mi NNW 12.7 mph 17.3 mph N/A   Mostly Cloudy
6:15 PM 78.3 °F - 61.5 °F 56% 29.69 in 10.0 mi NNW 15.0 mph 20.7 mph N/A   Mostly Cloudy
6:35 PM 77.0 °F - 61.0 °F 58% 29.70 in 10.0 mi NW 12.7 mph 21.9 mph N/A   Scattered Clouds
6:55 PM 75.6 °F - 59.9 °F 58% 29.71 in 10.0 mi NNW 13.8 mph 20.7 mph N/A   Scattered Clouds
7:15 PM 74.7 °F - 59.9 °F 60% 29.70 in 10.0 mi NNW 16.1 mph - N/A   Scattered Clouds
7:35 PM 70.7 °F - 63.0 °F 76% 29.70 in 5.0 mi North 12.7 mph 17.3 mph 0.10 in Rain Rain
7:55 PM 70.2 °F - 62.8 °F 77% 29.71 in 10.0 mi North 8.1 mph 17.3 mph 0.11 in Rain Rain
8:15 PM 68.9 °F - 63.7 °F 83% 29.72 in 3.0 mi NNE 8.1 mph - 0.19 in Rain Rain
8:35 PM 70.9 °F - 64.4 °F 80% 29.72 in 10.0 mi North 9.2 mph - 0.20 in   Overcast
8:55 PM 70.9 °F - 64.0 °F 79% 29.73 in 10.0 mi North 6.9 mph - 0.20 in   Mostly Cloudy
9:15 PM 70.7 °F - 63.1 °F 77% 29.74 in 10.0 mi North 8.1 mph - N/A   Mostly Cloudy
9:35 PM 69.4 °F - 62.6 °F 79% 29.75 in 10.0 mi North 6.9 mph - N/A   Scattered Clouds
9:55 PM 68.9 °F - 62.6 °F 80% 29.77 in 10.0 mi NNE 4.6 mph - N/A   Clear
10:15 PM 67.5 °F - 63.5 °F 87% 29.78 in 10.0 mi ENE 4.6 mph - N/A   Clear
10:35 PM 67.6 °F - 63.3 °F 86% 29.79 in 10.0 mi East 3.5 mph - N/A   Clear
10:55 PM 67.1 °F - 63.9 °F 89% 29.79 in 10.0 mi ENE 3.5 mph - N/A   Clear
11:15 PM 67.1 °F - 63.1 °F 87% 29.80 in 10.0 mi NE 3.5 mph - N/A   Clear
11:35 PM 66.7 °F - 62.8 °F 87% 29.81 in 10.0 mi Calm Calm - N/A   Clear
11:55 PM 65.5 °F - 62.8 °F 91% 29.81 in 10.0 mi Calm Calm - N/A   Clear